Simultaneous Nadir Overpasses (SNOs) Predictions

Prediction of SNOs between AQUA and GOES-15 Satellite Orbit:

Table of predicted SNOs for the next 14.0 days since TLE Epoch: 3/23/2018
Index Date Time (AQUA) AQUA Lat,Lon GOES-15 Lat,Lon Distance(km) Time Diff (sec)
1 03/24/2018 10:20:27 -0.68,-131.14 0.06,-134.71 405.75 80
2 03/24/2018 22:41:51 -0.41,-136.33 -0.07,-134.69 186.54 80
3 03/26/2018 22:29:39 0.18,-133.36 -0.07,-134.59 139.62 80
4 03/27/2018 10:50:55 0.91,-138.52 0.07,-134.57 449.76 80
5 03/28/2018 22:17:27 0.79,-130.40 -0.07,-134.50 465.48 80
6 03/29/2018 10:38:43 0.31,-135.56 0.08,-134.47 124.02 80
7 03/31/2018 10:26:31 -0.29,-132.59 0.08,-134.37 201.52 80
8 03/31/2018 22:47:55 -0.79,-137.79 -0.08,-134.34 391.18 80
9 04/02/2018 22:35:43 -0.17,-134.83 -0.08,-134.24 66.11 80
10 04/04/2018 22:23:30 0.38,-131.85 -0.08,-134.13 258.62 80
11 04/05/2018 10:44:46 0.73,-137.01 0.08,-134.10 331.17 80




NCC Satellite Simultaneous Nadir Overpasses (SNOs) Prediction Service
